Theta_e
330 337 352 354 354 354 353 352 352 352 351 351 351 352 352 352 353 352 351 349 347 345 343 343 342 341 340 340 341 344 346 347 349 348 347 347 348 349 350 349 349 347 349
332 340 349 353 355 355 355 354 353 353 351 351 350 351 352 352 352 350 349 347 346 344 343 342 341 338 338 337 338 341 343 345 346 346 346 346 346 346 347 347 348 346 349
334 343 348 351 354 355 355 354 354 353 351 350 350 350 350 351 350 349 347 344 342 342 341 340 338 336 335 335 336 337 339 339 338 339 343 338 339 344 345 345 344 345 347
338 344 346 348 353 355 355 354 353 353 353 351 350 349 348 348 348 346 345 342 340 339 339 338 334 333 332 332 333 333 335 333 334 337 333 338 339 343 342 343 342 341 341
337 343 345 347 352 353 354 353 352 352 352 351 349 348 348 347 346 347 344 342 339 336 336 334 331 330 327 328 329 330 332 333 337 336 334 336 336 341 342 341 339 339 340
335 340 343 348 352 352 352 352 352 351 351 352 351 350 347 345 343 342 341 340 338 335 334 331 329 326 323 322 324 326 329 335 333 332 334 338 336 341 341 340 339 338 338
333 337 340 346 350 351 351 351 351 351 351 351 350 348 345 344 341 340 338 338 335 335 332 329 325 322 320 319 320 324 324 331 326 327 329 332 335 339 338 337 337 336 334
332 335 339 340 344 347 349 350 350 350 350 351 349 347 346 343 340 337 335 336 335 333 330 327 323 320 318 317 318 319 323 326 322 320 322 325 335 337 335 335 334 333 333
331 333 336 339 340 339 342 343 346 347 348 347 346 345 344 341 339 337 335 334 335 333 329 326 322 319 316 315 315 318 321 321 315 315 319 321 334 334 333 332 331 331 330
324 331 333 336 340 340 340 336 338 341 342 342 341 339 336 335 335 334 331 333 333 332 329 326 322 319 316 312 310 313 314 315 309 310 312 316 330 329 329 328 328 328 327
318 327 330 334 338 341 339 336 332 335 336 336 336 332 329 331 332 327 326 330 334 331 327 325 322 319 315 310 307 310 304 300 303 304 308 319 324 326 324 323 324 325 325
313 317 326 330 337 339 339 340 338 334 334 333 334 332 330 329 328 326 322 326 330 328 329 325 322 318 306 294 291 300 294 296 299 299 304 317 318 321 320 320 321 322 324
306 314 319 326 331 335 336 338 338 338 335 331 331 330 327 326 324 323 321 319 319 319 317 319 313 306 299 296 292 293 293 292 293 295 300 312 315 318 318 319 320 322 324
300 307 314 321 325 328 334 336 336 335 334 330 327 325 323 324 322 320 319 318 315 313 311 309 306 304 300 296 295 293 292 292 291 293 294 307 310 315 318 319 320 323 324
296 297 300 315 322 325 325 328 332 333 333 332 328 325 324 322 322 320 318 317 315 312 308 306 303 302 297 294 293 293 292 292 291 292 293 302 307 312 317 319 321 325 324
296 297 299 304 319 323 325 323 328 331 330 329 326 324 325 323 321 319 317 315 314 311 307 305 303 301 296 293 293 293 292 291 291 291 293 294 305 310 315 320 321 326 325
294 296 298 308 316 320 321 320 322 323 323 323 322 321 324 323 322 318 316 314 313 310 306 303 301 297 294 292 291 291 291 291 291 290 291 294 297 308 314 318 323 325 325
293 294 297 300 311 316 318 318 319 319 320 321 323 323 323 323 322 318 315 313 313 310 308 305 299 296 294 291 290 290 289 290 290 290 290 291 294 301 307 314 320 325 325
292 293 295 297 299 310 314 316 315 316 319 320 322 322 322 320 319 317 314 313 311 309 306 303 297 295 293 291 291 290 289 288 289 291 290 291 292 297 301 306 312 312 321
291 292 293 295 295 299 307 310 311 311 311 312 313 316 319 319 318 315 312 310 308 306 303 300 298 292 291 291 292 290 288 288 288 288 289 291 291 293 299 300 300 302 310
290 291 291 292 293 296 296 298 301 298 299 300 303 304 307 310 313 313 312 310 307 305 304 300 296 295 293 289 288 288 287 288 287 288 288 289 290 292 297 298 298 298 300
287 289 290 291 291 293 294 294 296 294 294 297 297 297 298 300 302 304 306 304 304 302 300 298 295 294 293 291 290 284 284 286 286 287 287 288 288 291 294 297 296 296 296
285 286 288 289 290 291 292 293 293 293 292 292 292 293 293 293 293 295 298 300 300 299 298 297 295 294 293 291 290 291 284 281 282 285 285 286 287 288 290 292 294 295 295
284 285 287 288 288 289 290 290 289 287 286 287 288 289 289 289 289 290 291 292 293 296 296 295 295 294 292 291 290 290 287 287 283 283 285 284 285 287 288 290 291 291 292
283 283 284 286 286 287 287 287 286 284 285 284 285 285 286 286 286 287 287 288 289 290 289 290 292 293 292 291 290 289 287 287 287 284 285 284 284 285 286 289 290 290 290
282 282 283 284 284 285 285 285 284 283 282 282 282 282 283 284 284 285 286 286 286 287 287 287 288 288 289 290 290 289 288 288 286 285 284 283 284 285 285 286 287 289 290
Wind_Speed
6 7 13 14 13 14 14 12 12 11 11 11 11 11 11 11 11 13 13 12 11 8 8 9 9 9 9 9 9 9 8 9 10 11 11 11 13 14 13 13 10 6 9
8 8 12 14 14 14 14 13 12 10 11 11 11 12 12 12 13 13 12 11 10 8 7 8 8 8 8 8 8 8 9 9 9 9 9 8 10 11 12 11 9 9 13
8 10 10 12 14 14 15 14 13 12 12 11 10 10 11 10 11 11 11 10 9 8 7 8 7 7 7 7 7 7 7 7 6 5 6 3 5 11 10 12 9 10 11
9 10 10 11 12 13 13 14 13 12 11 12 11 10 10 8 8 8 9 9 8 7 6 6 6 6 6 7 6 7 6 5 4 2 2 2 4 10 10 11 11 12 14
6 8 9 12 13 13 14 13 13 12 12 12 12 12 13 10 7 7 6 8 8 6 5 4 5 5 6 5 6 6 5 5 7 4 5 3 2 7 9 10 10 11 12
6 6 8 13 13 14 15 13 12 11 11 11 11 11 11 10 8 6 5 3 4 4 2 3 4 5 5 5 5 5 6 6 7 5 4 4 4 9 9 10 10 10 9
5 5 6 12 12 13 14 14 13 12 11 10 12 12 10 8 6 5 4 0 1 2 1 1 3 3 4 4 4 5 5 7 5 5 5 4 3 7 7 8 8 7 7
7 6 6 10 11 11 13 14 14 13 12 12 14 12 13 10 8 6 3 3 3 3 2 0 2 2 3 4 4 5 5 6 5 5 4 3 2 6 5 6 5 4 4
6 5 5 7 8 10 10 11 11 12 11 11 11 12 13 12 9 8 6 2 3 3 4 2 1 1 2 3 4 6 6 6 5 3 3 2 3 3 3 3 3 2 3
5 6 6 6 8 6 6 9 9 9 8 7 7 9 10 10 9 8 7 3 4 6 5 3 3 2 1 3 4 6 7 8 4 3 3 3 2 2 1 1 1 1 1
4 6 6 7 9 9 6 6 8 9 9 8 7 8 7 4 6 7 6 7 6 7 6 4 3 2 3 6 5 6 6 3 2 2 1 5 3 1 1 2 1 1 1
6 5 6 6 11 12 10 9 7 4 4 4 4 5 4 5 6 6 6 8 5 6 5 5 4 1 5 2 3 5 2 2 1 1 1 4 3 2 3 3 2 2 2
4 4 6 5 6 11 9 5 4 4 3 3 5 5 5 4 4 3 3 2 2 4 2 3 1 2 0 2 2 2 1 1 0 1 3 4 4 5 4 3 3 2 1
9 8 6 7 6 7 6 7 6 4 4 3 4 4 4 3 3 3 2 3 2 1 3 3 2 2 1 3 3 3 2 1 1 1 3 5 5 6 6 6 5 5 5
10 9 9 7 8 6 5 4 6 6 4 3 4 5 4 3 5 5 3 3 3 1 3 3 2 2 2 3 3 3 3 3 3 2 2 7 7 7 8 8 9 9 8
12 12 11 8 7 7 7 6 5 6 6 3 3 4 6 4 4 3 4 4 4 4 3 3 3 3 3 2 4 3 4 4 4 4 3 4 8 9 9 11 11 11 10
12 13 13 10 4 6 6 5 3 3 3 3 4 5 7 6 6 6 4 4 4 4 5 2 1 1 2 1 4 4 3 4 4 5 4 4 5 9 10 12 13 12 12
12 15 14 13 9 5 5 4 3 3 2 2 1 2 4 4 4 3 3 3 4 4 4 3 2 2 3 3 2 4 3 4 5 6 4 4 4 4 6 10 11 15 14
13 14 15 15 13 8 7 6 6 6 5 4 3 3 2 3 2 3 2 2 3 3 3 2 2 2 2 2 4 4 4 4 5 3 6 6 6 5 4 8 11 11 12
12 13 14 13 16 11 7 7 6 8 8 9 9 8 6 4 3 1 2 3 4 3 2 2 3 1 1 2 3 4 4 5 5 5 5 4 5 6 5 6 5 5 11
14 15 16 16 15 11 6 4 6 6 8 10 9 14 13 11 10 6 4 3 1 2 0 1 1 2 2 1 2 4 4 6 6 6 5 5 6 6 6 5 4 4 5
12 13 15 15 15 12 9 4 4 3 5 8 9 13 14 14 14 10 8 6 7 5 4 1 1 0 1 3 1 1 5 5 3 4 3 4 5 3 5 6 5 6 5
12 12 13 13 14 13 12 7 5 5 4 8 10 9 13 14 14 13 13 10 8 4 4 4 2 2 3 1 3 1 3 3 4 2 2 4 4 3 5 5 6 6 6
9 10 12 14 14 13 12 12 15 9 7 4 4 6 9 13 14 12 11 10 9 7 8 5 4 2 1 4 1 4 2 0 2 6 3 2 4 6 7 5 5 6 6
7 7 7 11 13 13 14 13 10 11 6 5 6 9 10 10 12 13 13 11 10 7 7 7 7 6 2 3 2 2 1 1 2 3 11 5 3 4 5 6 7 7 8
6 6 7 10 10 10 11 12 13 11 9 8 9 8 7 6 7 11 11 10 10 9 8 6 5 6 5 4 3 3 3 4 2 3 4 5 6 4 4 4 5 7 7
Wind_Direction
237 189 177 172 170 166 161 158 152 142 137 134 125 115 117 123 115 115 105 98 93 90 88 81 75 74 72 70 64 69 73 58 87 82 73 65 65 64 62 66 56 60 71
146 175 175 173 172 173 165 161 155 150 149 143 135 124 121 128 126 116 108 102 99 94 90 82 77 73 73 73 68 62 63 63 68 63 68 68 75 70 64 62 57 61 59
147 166 175 176 172 169 169 162 157 155 152 145 136 129 122 123 124 121 118 114 105 100 89 86 81 71 67 62 64 68 68 67 62 59 73 76 75 77 68 60 53 46 55
154 162 171 172 177 170 159 157 158 160 159 157 154 144 136 140 138 137 135 129 113 94 81 76 71 64 55 59 54 60 60 39 35 71 130 101 88 84 78 72 64 47 24
155 162 171 172 176 168 158 163 164 166 167 167 167 167 160 137 121 136 127 141 117 95 70 63 60 53 35 42 39 52 52 39 52 87 131 104 58 86 85 80 64 56 45
157 162 171 176 180 172 163 168 172 173 176 177 179 169 134 138 138 128 123 124 92 88 63 46 46 36 23 18 27 42 52 74 71 69 85 94 90 108 101 93 83 63 58
162 163 169 180 184 177 170 172 176 180 187 193 172 159 146 148 150 132 107 18 62 64 305 33 36 30 23 18 27 60 63 80 76 72 70 57 71 105 99 89 81 68 62
171 172 172 184 183 181 179 178 182 187 194 203 184 163 154 161 171 167 123 315 164 133 247 42 15 23 22 22 36 57 79 96 85 84 64 32 46 109 102 94 87 84 68
181 172 179 186 193 186 185 187 186 189 199 202 195 175 161 159 167 163 140 224 173 167 227 179 176 346 14 25 44 55 83 90 83 65 55 17 24 123 118 119 116 93 74
192 191 189 189 190 190 195 190 189 192 199 195 180 155 156 157 163 162 154 185 193 227 236 201 203 204 113 36 35 54 75 75 76 57 23 327 6 80 74 105 114 111 56
225 214 196 191 194 194 186 194 196 195 195 190 178 167 157 159 165 166 166 186 198 218 228 213 239 270 28 4 17 46 60 50 73 50 359 331 344 12 325 310 302 297 272
240 240 209 195 200 202 205 198 198 195 196 190 185 181 163 166 161 163 178 182 186 183 211 200 228 107 49 4 347 23 41 60 47 16 322 332 329 284 291 301 302 269 226
261 261 247 223 197 201 205 195 195 195 191 190 197 175 168 157 150 145 148 179 169 190 175 164 114 92 44 347 333 339 337 72 314 314 320 317 316 291 266 268 266 237 209
312 294 252 212 205 205 197 200 201 195 186 180 168 173 150 151 152 149 161 178 175 183 174 161 155 169 259 313 296 298 292 284 272 280 290 304 293 287 270 253 249 222 220
349 326 312 241 202 185 183 183 203 212 205 184 164 169 162 166 175 159 173 172 174 169 186 185 181 198 252 295 308 294 291 279 266 269 278 286 270 259 257 246 238 220 223
342 338 322 281 209 169 181 171 181 197 208 194 195 187 176 172 170 181 160 182 183 178 196 190 188 204 242 270 280 273 272 274 272 266 265 278 277 263 263 259 243 226 228
345 338 349 333 213 175 169 153 148 151 147 167 181 179 192 180 188 174 169 169 205 175 168 158 171 163 244 266 277 291 291 279 277 275 275 278 291 288 278 267 260 238 237
1 3 359 5 9 80 103 103 106 109 125 203 221 147 166 190 183 165 183 191 191 162 148 170 178 229 247 235 260 267 281 291 287 282 286 276 275 280 289 294 273 267 243
6 9 13 15 15 21 67 72 69 61 38 19 23 333 284 247 215 173 211 250 157 148 156 161 177 186 224 254 267 273 266 262 268 284 276 274 269 268 275 282 295 305 287
20 25 25 25 21 11 33 59 55 52 48 38 29 18 20 360 324 97 127 139 138 134 156 179 196 160 187 255 280 284 277 266 261 250 256 271 267 270 270 274 289 295 297
31 33 28 28 19 32 21 19 36 41 30 40 36 30 26 28 29 11 357 8 87 148 310 115 98 212 280 62 2 314 290 246 242 235 230 241 248 246 254 251 258 279 292
28 33 37 39 33 31 28 18 50 53 52 47 28 35 30 30 27 34 43 32 17 2 12 44 104 356 277 192 152 129 325 327 311 273 262 263 272 282 267 262 257 258 263
31 27 36 36 45 42 42 38 31 40 35 32 27 29 23 27 33 33 30 26 32 40 15 353 333 280 314 329 249 240 319 268 327 324 338 263 266 270 269 270 265 260 261
22 26 39 41 41 38 36 60 68 67 63 13 21 25 31 29 26 28 29 28 33 26 21 3 355 322 309 287 343 229 253 158 267 314 324 288 259 242 239 247 251 251 248
29 38 50 66 60 54 55 54 56 60 51 40 36 42 39 32 33 23 20 22 25 22 17 19 8 2 340 310 273 330 332 225 237 235 288 298 305 257 246 233 235 234 233
42 40 44 50 50 49 72 78 78 74 65 57 43 36 24 31 31 27 25 22 18 17 10 353 9 28 2 333 314 294 271 293 298 255 276 285 263 277 267 252 232 241 241